Location: Dampvalley
(47.9094°N, 6.1967°E)
Time: 07:14:57
(UTC+00:00)

SO-50 - Pass Details

Date: 28 November 2022
Orbit: 584 x 695 km, 64.6° (Epoch: 05 February)

Event Time Altitude Azimuth Distance (km) Brightness Sun altitude
Rises 06:21:51 0° 173° (S) 2,986 ? -6.4°
Reaches altitude 10° 06:24:41 10° 156° (SSE) 2,099 ? -6.0°
Maximum altitude 06:28:02 19° 111° (ESE) 1,597 ? -5.5°
Drops below altitude 10° 06:31:27 10° 67° (ENE) 2,145 ? -4.9°
Sets 06:34:22 0° 50° (NE) 3,076 ? -4.5°
